sat.trackr.live / text

‹ back to catalog

STARLINK-3119

NORAD 49145 · 2021-082R

PAYLOAD ACTIVE UNKNOWN

§ Identity

Operator
Country
US
Launch date
2021-09-14
Launch site
AFWTR
Launch vehicle
Mass (kg)
RCS (m²)

Purposes: comms

External: N2YO · Heavens-Above · Gunter

§ Orbital elements

Epoch: 2026-05-25T02:11:08.656224Z

Period
96.11 min
Inclination
70.0008°
Eccentricity
0.0002891
Mean motion
14.98331117 rev/d
Perigee alt
570.0 km
Apogee alt
574.1 km
Semi-major
6,950.2 km
B*
9.0675e-6
RAAN
61.8086°
Arg perigee
267.2128°
Mean anomaly
92.8700°
Rev number
25,840

§ Raw data

STARLINK-31191 49145U 21082R   26145.09107241  .00000015  00000+0  90675-5 0  99952 49145  70.0008  61.8086 0002891 267.2128  92.8700 14.98331117258400

JSON: /api/v1/satellites/49145 · /tle

For live sub-satellite position, see the globe view (requires WebGL).

§ Visibility from observer

Set your observer location to see the next 7 days of passes ≥ 10°. The values pass through the URL so the page stays shareable.

No JS? Fill the form by hand. The geolocation button needs JavaScript.